Starlink 6125

operational
NORAD ID: 57114 Int'l Des: 2023-090 Owner: SPXS Country: US Constellation: starlink
LEOCIRCULAR

About Starlink 6125

Description loading...

Live Position

Loading 3D Globe...

Upcoming Passes

Altitude History

Altitude vs Time

uPlot chart will show altitude changes over time

Two-Line Element Set

1 57114U 23090P 26037.18048323 -.00000181 00000-0 16600-5 0 9998
2 57114 43.0023 85.8540 0001043 271.7453 88.3270 15.02533812145670
Epoch: Feb 6, 2026 • Age: 12 hours

Current Status

Altitude 562.6 km
Velocity 7.59 km/s
Sub-Earth Point 41.40°N, 176.9°E
Launch Date Jun 23, 2023
Age 2.6 years
Type internet

Technical Details

Classification Payload
Mass 305.00 kg
Dry Mass 290.00 kg
Total Mass 305.00 kg
Length 0.20 m
Diameter 2.80 m
Span 9.00 m
Shape Box + pan
Manufacturer SPXS
Bus Type Starlink
Phase Status In Orbit
Owner/State SPXS/US

Large Constellations

Loading constellations...